Regional Weather Roundup
Issued by NWS

Home | Current Version | Previous Version | Text Only | Print | Product List | Glossary On
Versions: 1 2 3 4 5 6 7 8 9 10 11 12 13 14 15 16 17 18 19 20 21 22 23 24 25 26 27 28
000
ASUS45 KBOU 181610
RWRCO

WEATHER ROUNDUP FOR COLORADO
NATIONAL WEATHER SERVICE DENVER/BOULDER CO
900 AM MST SAT NOV 18 2017

NOTE: "FAIR" INDICATES FEW OR NO CLOUDS BELOW 12000 FEET WITH NO
SIGNIFICANT WEATHER AND/OR OBSTRUCTIONS TO VISIBILITY.

COZ001>005-013-030-031-181700-
...NORTHWEST COLORADO...

CITY           SKY/WX    TMP DP  RH WIND       PRES   REMARKS
CRAIG          FAIR      14  11  87 CALM      30.44R
HAYDEN         FAIR      22  15  75 NE5       30.43R WCI  16
MEEKER         FAIR      17  12  80 MISG      30.43R
RABBIT EARS PA CLOUDY   N/A N/A N/A W8        30.26R
STEAMBOAT SPGS FAIR      22  15  76 E5        30.40S WCI  15
WALDEN         FAIR      18   9  68 S13       30.34R WCI   4
$$

COZ006>008-011-181700-
...WEST CENTRAL VALLEYS...

CITY           SKY/WX    TMP DP  RH WIND       PRES   REMARKS
GRAND JUNCTION FAIR      30  22  72 CALM      30.45R
MONTROSE       FAIR      26  17  68 SE8       30.47R WCI  18
EAGLE          FAIR      21  13  71 E6        30.46R WCI  13
RIFLE          FAIR      20  16  84 CALM      30.47R
DELTA          FAIR      31  20  62 SE6       30.46S WCI  25
NUCLA          FAIR      28  14  54 SE5       30.45R WCI  23
$$

COZ017>023-064>068-181700-
...SOUTHWEST COLORADO...

CITY           SKY/WX    TMP DP  RH WIND       PRES   REMARKS
DURANGO        FAIR      28  14  55 E7        30.32R WCI  21
CORTEZ         FAIR      32  15  49 E6        30.37R WCI  26
PAGOSA SPRINGS FAIR      30  15  52 CALM      30.32R
TELLURIDE      NOT AVBL
WOLF CREEK PAS FAIR      18 -15  23 NW5       30.33R WCI  11
$$

COZ009-010-012-014-032>034-037-058>063-181700-
...CENTRAL COLORADO...

CITY           SKY/WX    TMP DP  RH WIND       PRES   REMARKS
ASPEN          FAIR      18  10  71 S6        30.39R WCI  10
BUENA VISTA    FAIR      24   7  49 NW23G39   30.26R WCI   8
COPPER MTN     FAIR       9   1  72 MISG      30.25R
BERTHOUD PASS  CLOUDY    -2 -13  60 N17G30    30.17R WCI -24
COTTONWOOD PAS FAIR      27   5  39 SW3       30.23R
GUNNISON       FAIR      15   9  76 CALM      30.40R
KREMMLING      FAIR      30  12  47 SW7       30.41R WCI  23
LEADVILLE      FAIR      11   3  70 N8        30.28R WCI  -1
MONARCH PASS   CLOUDY     5   1  85 SW29G39   30.31R WCI -19
SALIDA         FAIR      27   9  45 N5        30.36R WCI  22
SUNLIGHT         N/A      7   3  85 MISG      30.35R
WILKERSON PASS FAIR      18  -6  35 N10G23    30.20R WCI   6
$$

COZ069>075-181700-
...SAN LUIS VALLEY/SANGRE DE CRISTO MOUNTAINS...

CITY           SKY/WX    TMP DP  RH WIND       PRES   REMARKS
ALAMOSA        FAIR      27   8  44 CALM      30.32R
DEL NORTE      FAIR      26   4  38 CALM      30.30S
LA VETA PASS   FAIR      21   3  45 MISG        N/A
SAGUACHE       FAIR      27   9  46 N14G20    30.33R WCI  15
$$

COZ035-036-038>040-181700-
...NORTHERN COLORADO FRONT RANGE...

CITY           SKY/WX    TMP DP  RH WIND       PRES   REMARKS
DENVER INTL AP FAIR      34  16  47 E3        30.23R
DMNS CITY PARK   N/A     38   3  23 W2G9      30.23S
AURORA         MOSUNNY   31  22  68 S5        30.23R WCI  27
FRONT RANGE AP SUNNY     32  18  55 CALM      30.24R
ERIE MUNI ARPT FAIR      37  16  43 SE8       30.28S
BOULDER MUN AP FAIR      36  14  41 CALM      30.21R
CENTENNIAL     FAIR      30  18  60 SE5       30.22S WCI  25
BROOMFIELD     SUNNY     37   5  25 W13G18    30.22R
FORT COLLINS   FAIR      34  14  43 SE6       30.23R WCI  29
LONGMONT       FAIR      38  19  45 E6        30.24R
$$

COZ041-046-047-076>085-087-088-181700-
...PIKES PEAK/PALMER DIVIDE AND SOUTHERN FOOTHILLS...

CITY           SKY/WX    TMP DP  RH WIND       PRES   REMARKS
COLO. SPRINGS  FAIR      33  12  41 CALM      30.25R
A. F. ACADEMY  FAIR      27  16  61 NE3       30.22R
SCHRIEVER AFB  FAIR      34   8  34 N7        30.25R WCI  27
CHEYENNE MTN   FAIR      30  17  59 SE14      30.17R WCI  19
ELLICOTT       NOT AVBL
FALCON         FAIR      29  15  55 CALM      30.24R
FORT CARSON    FAIR      32  16  50 CALM      30.24R
LIMON          FAIR      31  18  58 N17       30.24R WCI  19
MONUMENT HILL  FAIR      25  14  63 CALM      30.22S
CANON CITY     FAIR      37  10  32 W10       30.26R
WALSENBURG     FAIR      34  23  64 W10       30.27S WCI  26
TRINIDAD       FAIR      33  23  66 NW3       30.29R
$$

COZ042>045-048>051-090-091-181700-
...NORTHEAST COLORADO...

CITY           SKY/WX    TMP DP  RH WIND       PRES   REMARKS
GREELEY ARPT   FAIR      35  15  44 W5        30.25R WCI  31
AKRON          FAIR      35  17  47 NW31      30.23R WCI  22
BURLINGTON     FAIR      38  21  50 N24G35    30.23R
WRAY           NOT AVBL
YUMA           FAIR      34  21  60 NW17      30.24R WCI  23
STERLING       FAIR      36  21  55 NW20G28   30.25R
HOLYOKE        FAIR      41  19  42 NW18G30   30.23R
FORT MORGAN    FAIR      37  10  33 N24G31    30.23F
$$

COZ086-089-092>099-181700-
...SOUTHEAST COLORADO...

CITY           SKY/WX    TMP DP  RH WIND       PRES   REMARKS
PUEBLO         FAIR      37  24  59 SW5       30.28R
LA JUNTA       FAIR      42  22  44 N12       30.28R
LAMAR          FAIR      44  19  36 N20G28    30.25R
SPRINGFIELD      N/A     39  21  48 N28G39    30.22R
$$




USA.gov is the U.S. government's official web portal to all federal, state and local government web resources and services.